Time,TemperatureF,DewpointF,PressureIn,WindDirection,WindDirectionDegrees,WindSpeedMPH,WindSpeedGustMPH,Humidity,HourlyPrecipIn,Conditions,Clouds,dailyrainin,SoftwareType,DateUTC
2013-03-28 00:02:00,34.0,26.0,30.37,NW,311,0.0,0.0,71,0.00,,,0.00,,2013-03-28 05:02:00,
2013-03-28 00:12:00,34.0,26.0,30.37,NW,311,0.0,0.0,71,0.00,,,0.00,,2013-03-28 05:12:00,
2013-03-28 00:22:00,33.0,25.0,30.37,NW,311,0.0,0.0,72,0.00,,,0.00,,2013-03-28 05:22:00,
2013-03-28 00:32:00,33.0,25.0,30.37,NW,311,0.0,0.0,72,0.00,,,0.00,,2013-03-28 05:32:00,
2013-03-28 00:42:00,33.0,25.0,30.37,NW,311,0.0,0.0,72,0.00,,,0.00,,2013-03-28 05:42:00,
2013-03-28 00:52:00,33.0,25.0,30.37,NW,311,0.0,0.0,71,0.00,,,0.00,,2013-03-28 05:52:00,
2013-03-28 01:02:00,32.0,24.0,30.37,NW,311,0.0,0.0,72,0.00,,,0.00,,2013-03-28 06:02:00,
2013-03-28 01:12:00,32.0,24.0,30.37,NW,311,0.0,0.0,72,0.00,,,0.00,,2013-03-28 06:12:00,
2013-03-28 01:22:00,32.0,24.0,30.37,NW,311,0.0,0.0,73,0.00,,,0.00,,2013-03-28 06:22:00,
2013-03-28 01:32:00,32.0,25.0,30.37,NW,311,0.0,0.0,74,0.00,,,0.00,,2013-03-28 06:32:00,
2013-03-28 01:42:00,32.0,25.0,30.37,NW,311,0.0,0.0,74,0.00,,,0.00,,2013-03-28 06:42:00,
2013-03-28 01:52:00,32.0,25.0,30.37,NW,311,0.0,0.0,75,0.00,,,0.00,,2013-03-28 06:52:00,
2013-03-28 02:02:00,32.0,25.0,30.38,NW,311,0.0,0.0,75,0.00,,,0.00,,2013-03-28 07:02:00,
2013-03-28 02:12:00,32.0,25.0,30.38,NW,311,0.0,0.0,75,0.00,,,0.00,,2013-03-28 07:12:00,
2013-03-28 02:22:00,32.0,25.0,30.38,NW,311,0.0,0.0,75,0.00,,,0.00,,2013-03-28 07:22:00,
2013-03-28 02:32:00,32.0,25.0,30.38,NW,311,0.0,0.0,75,0.00,,,0.00,,2013-03-28 07:32:00,
2013-03-28 02:42:00,32.0,25.0,30.38,NW,311,0.0,0.0,75,0.00,,,0.00,,2013-03-28 07:42:00,
2013-03-28 02:52:00,32.0,25.0,30.38,NW,311,0.0,0.0,76,0.00,,,0.00,,2013-03-28 07:52:00,
2013-03-28 03:02:00,32.0,25.0,30.37,NW,311,0.0,0.0,76,0.00,,,0.00,,2013-03-28 08:02:00,
2013-03-28 03:12:00,32.0,25.0,30.37,NW,311,0.0,0.0,76,0.00,,,0.00,,2013-03-28 08:12:00,
2013-03-28 03:21:00,31.0,25.0,30.37,NW,311,0.0,0.0,77,0.00,,,0.00,,2013-03-28 08:21:00,
2013-03-28 03:32:00,31.0,25.0,30.37,NW,311,0.0,0.0,77,0.00,,,0.00,,2013-03-28 08:32:00,
2013-03-28 03:42:00,31.0,25.0,30.37,NW,311,0.0,0.0,77,0.00,,,0.00,,2013-03-28 08:42:00,
2013-03-28 03:52:00,31.0,24.0,30.37,NW,311,0.0,0.0,76,0.00,,,0.00,,2013-03-28 08:52:00,
2013-03-28 04:02:00,31.0,25.0,30.37,NW,311,0.0,0.0,77,0.00,,,0.00,,2013-03-28 09:02:00,
2013-03-28 04:12:00,31.0,25.0,30.37,NW,311,0.0,0.0,77,0.00,,,0.00,,2013-03-28 09:12:00,
2013-03-28 04:22:00,31.0,25.0,30.37,NW,311,0.0,0.0,77,0.00,,,0.00,,2013-03-28 09:22:00,
2013-03-28 04:32:00,31.0,25.0,30.37,NW,311,0.0,0.0,77,0.00,,,0.00,,2013-03-28 09:32:00,
2013-03-28 04:42:00,30.0,24.0,30.37,NW,311,0.0,0.0,78,0.00,,,0.00,,2013-03-28 09:42:00,
2013-03-28 04:52:00,30.0,24.0,30.37,NW,311,0.0,0.0,78,0.00,,,0.00,,2013-03-28 09:52:00,
2013-03-28 05:02:00,30.0,24.0,30.37,NW,311,0.0,0.0,78,0.00,,,0.00,,2013-03-28 10:02:00,
2013-03-28 05:12:00,30.0,24.0,30.37,NW,311,0.0,0.0,78,0.00,,,0.00,,2013-03-28 10:12:00,
2013-03-28 05:22:00,29.0,23.0,30.37,NW,311,0.0,0.0,78,0.00,,,0.00,,2013-03-28 10:22:00,
2013-03-28 05:32:00,29.0,23.0,30.37,NW,311,0.0,0.0,79,0.00,,,0.00,,2013-03-28 10:32:00,
2013-03-28 05:42:00,29.0,23.0,30.37,NW,311,0.0,0.0,79,0.00,,,0.00,,2013-03-28 10:42:00,
2013-03-28 05:53:00,29.0,23.0,30.37,NW,311,0.0,0.0,79,0.00,,,0.00,,2013-03-28 10:53:00,
2013-03-28 06:02:00,29.0,23.0,30.38,NW,311,0.0,0.0,79,0.00,,,0.00,,2013-03-28 11:02:00,
2013-03-28 06:12:00,29.0,23.0,30.38,NW,311,0.0,0.0,79,0.00,,,0.00,,2013-03-28 11:12:00,
2013-03-28 06:23:00,29.0,24.0,30.39,NW,311,0.0,0.0,80,0.00,,,0.00,,2013-03-28 11:23:00,
2013-03-28 06:32:00,29.0,24.0,30.39,NW,311,0.0,0.0,80,0.00,,,0.00,,2013-03-28 11:32:00,
2013-03-28 06:42:00,29.0,24.0,30.39,NW,311,0.0,0.0,80,0.00,,,0.00,,2013-03-28 11:42:00,
2013-03-28 06:52:00,29.0,24.0,30.40,NW,311,0.0,0.0,81,0.00,,,0.00,,2013-03-28 11:52:00,
2013-03-28 07:02:00,29.0,24.0,30.41,NW,311,0.0,0.0,81,0.00,,,0.00,,2013-03-28 12:02:00,
2013-03-28 07:12:00,29.0,24.0,30.41,NW,311,0.0,0.0,81,0.00,,,0.00,,2013-03-28 12:12:00,
2013-03-28 07:22:00,29.0,24.0,30.41,NW,311,0.0,0.0,82,0.00,,,0.00,,2013-03-28 12:22:00,
2013-03-28 07:32:00,29.0,24.0,30.41,NW,311,0.0,0.0,82,0.00,,,0.00,,2013-03-28 12:32:00,
2013-03-28 07:42:00,29.0,24.0,30.41,NW,311,0.0,0.0,82,0.00,,,0.00,,2013-03-28 12:42:00,
2013-03-28 07:52:00,29.0,25.0,30.42,NW,311,0.0,0.0,83,0.00,,,0.00,,2013-03-28 12:52:00,
2013-03-28 08:02:00,29.0,25.0,30.42,NW,311,0.0,0.0,84,0.00,,,0.00,,2013-03-28 13:02:00,
2013-03-28 08:12:00,29.0,25.0,30.42,NW,311,0.0,0.0,84,0.00,,,0.00,,2013-03-28 13:12:00,
2013-03-28 08:22:00,30.0,26.0,30.43,NW,311,0.0,0.0,86,0.00,,,0.00,,2013-03-28 13:22:00,
2013-03-28 08:32:00,31.0,28.0,30.44,NW,311,0.0,0.0,87,0.00,,,0.00,,2013-03-28 13:32:00,
2013-03-28 08:41:00,31.0,28.0,30.44,NW,311,0.0,0.0,87,0.00,,,0.00,,2013-03-28 13:41:00,
2013-03-28 08:52:00,32.0,28.0,30.44,NW,311,1.0,1.0,86,0.00,,,0.00,,2013-03-28 13:52:00,
2013-03-28 09:02:00,33.0,29.0,30.44,NW,311,1.0,1.0,84,0.00,,,0.00,,2013-03-28 14:02:00,
2013-03-28 09:12:00,33.0,29.0,30.44,NW,311,1.0,1.0,84,0.00,,,0.00,,2013-03-28 14:12:00,
2013-03-28 09:22:00,36.0,28.0,30.43,ENE,62,3.0,5.0,71,0.00,,,0.00,,2013-03-28 14:22:00,
2013-03-28 09:32:00,36.0,28.0,30.43,ENE,62,3.0,5.0,71,0.00,,,0.00,,2013-03-28 14:32:00,
2013-03-28 09:42:00,36.0,28.0,30.43,ENE,62,3.0,5.0,71,0.00,,,0.00,,2013-03-28 14:42:00,
2013-03-28 09:52:00,40.0,28.0,30.43,NE,47,4.0,4.0,63,0.00,,,0.00,,2013-03-28 14:52:00,
2013-03-28 10:02:00,40.0,26.0,30.43,NE,46,3.0,5.0,58,0.00,,,0.00,,2013-03-28 15:02:00,
2013-03-28 10:12:00,40.0,26.0,30.43,NE,46,3.0,5.0,58,0.00,,,0.00,,2013-03-28 15:12:00,
2013-03-28 10:21:00,43.0,27.0,30.43,SSE,165,2.0,3.0,53,0.00,,,0.00,,2013-03-28 15:21:00,
2013-03-28 10:33:00,44.0,28.0,30.43,SSE,165,2.0,2.0,54,0.00,,,0.00,,2013-03-28 15:33:00,
2013-03-28 10:53:00,45.0,26.0,30.43,SSW,194,1.0,1.0,47,0.00,,,0.00,,2013-03-28 15:53:00,
2013-03-28 11:02:00,47.0,28.0,30.43,SSE,151,1.0,3.0,47,0.00,,,0.00,,2013-03-28 16:02:00,
2013-03-28 11:12:00,47.0,28.0,30.43,SSE,151,1.0,3.0,47,0.00,,,0.00,,2013-03-28 16:12:00,
2013-03-28 11:23:00,46.0,27.0,30.43,South,173,3.0,3.0,47,0.00,,,0.00,,2013-03-28 16:23:00,
2013-03-28 11:32:00,47.0,27.0,30.42,ESE,110,3.0,3.0,46,0.00,,,0.00,,2013-03-28 16:32:00,
2013-03-28 11:42:00,47.0,27.0,30.42,ESE,110,3.0,3.0,46,0.00,,,0.00,,2013-03-28 16:42:00,
2013-03-28 11:52:00,47.0,27.0,30.42,NE,48,5.0,6.0,45,0.00,,,0.00,,2013-03-28 16:52:00,
2013-03-28 12:02:00,46.0,26.0,30.42,ENE,74,1.0,3.0,46,0.00,,,0.00,,2013-03-28 17:02:00,
2013-03-28 12:12:00,46.0,26.0,30.42,ENE,74,1.0,3.0,46,0.00,,,0.00,,2013-03-28 17:12:00,
2013-03-28 12:22:00,47.0,25.0,30.42,ENE,70,3.0,3.0,42,0.00,,,0.00,,2013-03-28 17:22:00,
2013-03-28 12:32:00,49.0,30.0,30.41,South,173,3.0,3.0,47,0.00,,,0.00,,2013-03-28 17:32:00,
2013-03-28 12:42:00,49.0,30.0,30.41,South,173,3.0,3.0,47,0.00,,,0.00,,2013-03-28 17:42:00,
2013-03-28 12:52:00,48.0,27.0,30.41,NE,46,3.0,3.0,44,0.00,,,0.00,,2013-03-28 17:52:00,
2013-03-28 13:02:00,48.0,27.0,30.41,NE,46,3.0,3.0,44,0.00,,,0.00,,2013-03-28 18:02:00,
2013-03-28 13:12:00,48.0,27.0,30.41,NE,46,3.0,3.0,44,0.00,,,0.00,,2013-03-28 18:12:00,
2013-03-28 13:22:00,50.0,29.0,30.40,ESE,117,0.0,1.0,45,0.00,,,0.00,,2013-03-28 18:22:00,
2013-03-28 13:32:00,51.0,31.0,30.39,ENE,63,3.0,3.0,46,0.00,,,0.00,,2013-03-28 18:32:00,
2013-03-28 13:42:00,51.0,31.0,30.39,ENE,63,3.0,3.0,46,0.00,,,0.00,,2013-03-28 18:42:00,
2013-03-28 13:52:00,51.0,30.0,30.38,WSW,245,3.0,5.0,44,0.00,,,0.00,,2013-03-28 18:52:00,
2013-03-28 14:02:00,51.0,28.0,30.37,NE,45,4.0,4.0,41,0.00,,,0.00,,2013-03-28 19:02:00,
2013-03-28 14:12:00,51.0,28.0,30.37,NE,45,4.0,4.0,41,0.00,,,0.00,,2013-03-28 19:12:00,
2013-03-28 14:22:00,52.0,28.0,30.36,NE,51,3.0,6.0,39,0.00,,,0.00,,2013-03-28 19:22:00,
2013-03-28 14:42:00,52.0,27.0,30.36,NE,56,2.0,3.0,37,0.00,,,0.00,,2013-03-28 19:42:00,
2013-03-28 14:52:00,53.0,27.0,30.35,NNE,14,2.0,3.0,37,0.00,,,0.00,,2013-03-28 19:52:00,
2013-03-28 15:03:00,53.0,26.0,30.34,North,360,3.0,6.0,35,0.00,,,0.00,,2013-03-28 20:03:00,
2013-03-28 15:12:00,53.0,26.0,30.34,North,360,3.0,6.0,35,0.00,,,0.00,,2013-03-28 20:12:00,
2013-03-28 15:22:00,53.0,26.0,30.33,ESE,120,0.0,1.0,35,0.00,,,0.00,,2013-03-28 20:22:00,
2013-03-28 15:32:00,54.0,28.0,30.33,NNE,25,0.0,2.0,37,0.00,,,0.00,,2013-03-28 20:32:00,
2013-03-28 15:42:00,54.0,28.0,30.33,NNE,25,0.0,2.0,37,0.00,,,0.00,,2013-03-28 20:42:00,
2013-03-28 15:53:00,54.0,27.0,30.33,NNW,338,1.0,2.0,35,0.00,,,0.00,,2013-03-28 20:53:00,
2013-03-28 16:02:00,54.0,26.0,30.32,ENE,63,0.0,3.0,33,0.00,,,0.00,,2013-03-28 21:02:00,
2013-03-28 16:12:00,54.0,26.0,30.32,ENE,63,0.0,3.0,33,0.00,,,0.00,,2013-03-28 21:12:00,
2013-03-28 16:22:00,56.0,29.0,30.32,SSW,194,2.0,3.0,36,0.00,,,0.00,,2013-03-28 21:22:00,
2013-03-28 16:32:00,57.0,27.0,30.32,South,182,1.0,3.0,32,0.00,,,0.00,,2013-03-28 21:32:00,
2013-03-28 16:43:00,57.0,27.0,30.32,South,182,1.0,3.0,32,0.00,,,0.00,,2013-03-28 21:43:00,
2013-03-28 16:53:00,56.0,31.0,30.31,East,82,0.0,1.0,38,0.00,,,0.00,,2013-03-28 21:53:00,
2013-03-28 17:02:00,56.0,29.0,30.30,NNE,22,3.0,4.0,35,0.00,,,0.00,,2013-03-28 22:02:00,
2013-03-28 17:12:00,56.0,29.0,30.30,NNE,22,3.0,4.0,35,0.00,,,0.00,,2013-03-28 22:12:00,
2013-03-28 17:22:00,56.0,27.0,30.30,North,360,4.0,4.0,33,0.00,,,0.00,,2013-03-28 22:22:00,
2013-03-28 17:32:00,55.0,28.0,30.30,NE,36,3.0,4.0,35,0.00,,,0.00,,2013-03-28 22:32:00,
2013-03-28 17:42:00,55.0,28.0,30.30,NE,36,3.0,4.0,35,0.00,,,0.00,,2013-03-28 22:42:00,
2013-03-28 17:52:00,55.0,27.0,30.31,ENE,58,1.0,3.0,34,0.00,,,0.00,,2013-03-28 22:52:00,
2013-03-28 18:02:00,54.0,28.0,30.31,ENE,58,0.0,0.0,36,0.00,,,0.00,,2013-03-28 23:02:00,
2013-03-28 18:12:00,54.0,28.0,30.31,ENE,58,0.0,0.0,36,0.00,,,0.00,,2013-03-28 23:12:00,
2013-03-28 18:22:00,54.0,26.0,30.31,NE,40,3.0,3.0,34,0.00,,,0.00,,2013-03-28 23:22:00,
2013-03-28 18:32:00,54.0,28.0,30.30,NE,40,2.0,3.0,36,0.00,,,0.00,,2013-03-28 23:32:00,
2013-03-28 18:42:00,54.0,28.0,30.30,NE,40,2.0,3.0,36,0.00,,,0.00,,2013-03-28 23:42:00,
2013-03-28 18:52:00,53.0,30.0,30.30,NE,40,0.0,0.0,41,0.00,,,0.00,,2013-03-28 23:52:00,
2013-03-28 19:02:00,53.0,29.0,30.30,NE,40,2.0,2.0,40,0.00,,,0.00,,2013-03-29 00:02:00,
2013-03-28 19:12:00,53.0,29.0,30.30,NE,40,2.0,2.0,40,0.00,,,0.00,,2013-03-29 00:12:00,
2013-03-28 19:22:00,52.0,31.0,30.30,NE,40,0.0,0.0,44,0.00,,,0.00,,2013-03-29 00:22:00,
2013-03-28 19:32:00,51.0,30.0,30.30,NE,40,0.0,0.0,44,0.00,,,0.00,,2013-03-29 00:32:00,
2013-03-28 19:42:00,51.0,30.0,30.30,NE,40,0.0,0.0,44,0.00,,,0.00,,2013-03-29 00:42:00,
2013-03-28 19:52:00,50.0,31.0,30.30,NE,40,0.0,0.0,48,0.00,,,0.00,,2013-03-29 00:52:00,
2013-03-28 20:02:00,49.0,30.0,30.31,NE,40,0.0,0.0,48,0.00,,,0.00,,2013-03-29 01:02:00,
2013-03-28 20:12:00,49.0,30.0,30.31,NE,40,0.0,0.0,48,0.00,,,0.00,,2013-03-29 01:12:00,
2013-03-28 20:22:00,48.0,30.0,30.32,NE,40,0.0,0.0,49,0.00,,,0.00,,2013-03-29 01:22:00,
2013-03-28 20:32:00,47.0,28.0,30.31,NE,40,0.0,0.0,48,0.00,,,0.00,,2013-03-29 01:32:00,
2013-03-28 20:42:00,47.0,28.0,30.31,NE,40,0.0,0.0,48,0.00,,,0.00,,2013-03-29 01:42:00,
2013-03-28 20:52:00,46.0,30.0,30.31,NE,40,0.0,0.0,53,0.00,,,0.00,,2013-03-29 01:52:00,
2013-03-28 21:02:00,46.0,29.0,30.32,NE,40,0.0,0.0,52,0.00,,,0.00,,2013-03-29 02:02:00,
2013-03-28 21:12:00,46.0,29.0,30.32,NE,40,0.0,0.0,52,0.00,,,0.00,,2013-03-29 02:12:00,
2013-03-28 21:22:00,45.0,31.0,30.32,NE,40,0.0,0.0,57,0.00,,,0.00,,2013-03-29 02:22:00,
2013-03-28 21:32:00,45.0,30.0,30.32,NE,40,0.0,0.0,56,0.00,,,0.00,,2013-03-29 02:32:00,
2013-03-28 21:42:00,45.0,30.0,30.32,NE,40,0.0,0.0,56,0.00,,,0.00,,2013-03-29 02:42:00,
2013-03-28 21:53:00,45.0,32.0,30.32,NE,40,0.0,0.0,59,0.00,,,0.00,,2013-03-29 02:53:00,
2013-03-28 22:02:00,45.0,31.0,30.32,NE,40,0.0,0.0,58,0.00,,,0.00,,2013-03-29 03:02:00,
2013-03-28 22:12:00,45.0,31.0,30.32,NE,40,0.0,0.0,58,0.00,,,0.00,,2013-03-29 03:12:00,
2013-03-28 22:22:00,45.0,34.0,30.32,NE,40,0.0,0.0,65,0.00,,,0.00,,2013-03-29 03:22:00,
2013-03-28 22:32:00,45.0,34.0,30.32,NE,40,0.0,0.0,65,0.00,,,0.00,,2013-03-29 03:32:00,
2013-03-28 22:42:00,45.0,34.0,30.32,NE,40,0.0,0.0,65,0.00,,,0.00,,2013-03-29 03:42:00,
2013-03-28 22:53:00,44.0,33.0,30.31,NE,40,0.0,0.0,66,0.00,,,0.00,,2013-03-29 03:53:00,
2013-03-28 23:03:00,43.0,31.0,30.31,NE,40,0.0,0.0,63,0.00,,,0.00,,2013-03-29 04:03:00,
2013-03-28 23:12:00,43.0,31.0,30.31,NE,40,0.0,0.0,63,0.00,,,0.00,,2013-03-29 04:12:00,
2013-03-28 23:22:00,43.0,31.0,30.31,NE,40,0.0,0.0,63,0.00,,,0.00,,2013-03-29 04:22:00,
2013-03-28 23:33:00,43.0,32.0,30.30,NE,40,0.0,0.0,66,0.00,,,0.00,,2013-03-29 04:33:00,
2013-03-28 23:43:00,43.0,32.0,30.30,NE,40,0.0,0.0,66,0.00,,,0.00,,2013-03-29 04:43:00,
2013-03-28 23:52:00,42.0,32.0,30.30,NE,40,0.0,0.0,67,0.00,,,0.00,,2013-03-29 04:52:00,